Back to catalog

ELEVATION-1

AliveScienceSSO
NORAD 62677·PAYLOAD·🇬🇧 United Kingdom

Launched Jan 14, 2025 from Vandenberg Space Force Base

Loading…

Next Passes (next 24 hours)

TLE

FreshSource: Space-Track

Epoch: Sep 14, 2026, 11:33 UTC

1 62677U 25009BW  26257.48163781  .00025633  00000-0  51844-3 0  9998
2 62677  97.3753 344.0217 0002814   8.8427 351.2871 15.46437972150606

Track ELEVATION-1 in real time with AllMySat

Download on the App Store